Year,Month,Day,Hour,Minute,Value (Times are PST for temperature in C)
2009,05,27,00,00,10.40
2009,05,27,00,01,10.30
2009,05,27,00,02,10.30
2009,05,27,00,03,10.20
2009,05,27,00,04,10.20
2009,05,27,00,05,10.10
2009,05,27,00,06,10.10
2009,05,27,00,07,10.00
2009,05,27,00,08,9.90
2009,05,27,00,09,9.90
2009,05,27,00,10,9.80
2009,05,27,00,11,9.70
2009,05,27,00,12,9.70
2009,05,27,00,13,9.70
2009,05,27,00,14,9.70
2009,05,27,00,15,9.60
2009,05,27,00,16,9.60
2009,05,27,00,17,9.50
2009,05,27,00,18,9.50
2009,05,27,00,19,9.50
2009,05,27,00,20,9.40
2009,05,27,00,21,9.40
2009,05,27,00,22,9.40
2009,05,27,00,23,9.40
2009,05,27,00,24,9.30
2009,05,27,00,25,9.30
2009,05,27,00,26,9.20
2009,05,27,00,27,9.20
2009,05,27,00,28,9.20
2009,05,27,00,29,9.20
2009,05,27,00,30,9.10
2009,05,27,00,31,9.10
2009,05,27,00,32,9.00
2009,05,27,00,33,9.00
2009,05,27,00,34,9.00
2009,05,27,00,35,8.90
2009,05,27,00,36,8.90
2009,05,27,00,37,8.80
2009,05,27,00,38,8.80
2009,05,27,00,39,8.70
2009,05,27,00,40,8.70
2009,05,27,00,41,8.70
2009,05,27,00,42,8.70
2009,05,27,00,43,8.60
2009,05,27,00,44,8.60
2009,05,27,00,45,8.50
2009,05,27,00,46,8.50
2009,05,27,00,47,8.40
2009,05,27,00,48,8.40
2009,05,27,00,49,8.40
2009,05,27,00,50,8.30
2009,05,27,00,51,8.30
2009,05,27,00,52,8.30
2009,05,27,00,53,8.30
2009,05,27,00,54,8.20
2009,05,27,00,55,8.30
2009,05,27,00,56,8.30
2009,05,27,00,57,8.30
2009,05,27,00,58,8.30
2009,05,27,00,59,8.30
2009,05,27,01,00,8.30
2009,05,27,01,01,8.30
2009,05,27,01,02,8.30
2009,05,27,01,03,8.30
2009,05,27,01,04,8.30
2009,05,27,01,05,8.30
2009,05,27,01,06,8.30
2009,05,27,01,07,8.30
2009,05,27,01,08,8.20
2009,05,27,01,09,8.20
2009,05,27,01,10,8.20
2009,05,27,01,11,8.20
2009,05,27,01,12,8.20
2009,05,27,01,13,8.10
2009,05,27,01,14,8.10
2009,05,27,01,15,8.10
2009,05,27,01,16,8.00
2009,05,27,01,17,8.00
2009,05,27,01,18,8.00
2009,05,27,01,19,8.00
2009,05,27,01,20,8.00
2009,05,27,01,21,8.00
2009,05,27,01,22,8.00
2009,05,27,01,23,8.10
2009,05,27,01,24,8.10
2009,05,27,01,25,8.10
2009,05,27,01,26,8.20
2009,05,27,01,27,8.20
2009,05,27,01,28,8.20
2009,05,27,01,29,8.20
2009,05,27,01,30,8.20
2009,05,27,01,31,8.20
2009,05,27,01,32,8.20
2009,05,27,01,33,8.20
2009,05,27,01,34,8.20
2009,05,27,01,35,8.10
2009,05,27,01,36,8.10
2009,05,27,01,37,8.00
2009,05,27,01,38,8.00
2009,05,27,01,39,8.00
2009,05,27,01,40,7.90
2009,05,27,01,41,7.90
2009,05,27,01,42,7.80
2009,05,27,01,43,7.80
2009,05,27,01,44,7.80
2009,05,27,01,45,7.70
2009,05,27,01,46,7.70
2009,05,27,01,47,7.60
2009,05,27,01,48,7.60
2009,05,27,01,49,7.60
2009,05,27,01,50,7.60
2009,05,27,01,51,7.60
2009,05,27,01,52,7.60
2009,05,27,01,53,7.60
2009,05,27,01,54,7.60
2009,05,27,01,55,7.60
2009,05,27,01,56,7.60
2009,05,27,01,57,7.60
2009,05,27,01,58,7.50
2009,05,27,01,59,7.50
2009,05,27,02,00,7.40
2009,05,27,02,01,7.40
2009,05,27,02,02,7.30
2009,05,27,02,03,7.30
2009,05,27,02,04,7.30
2009,05,27,02,05,7.30
2009,05,27,02,06,7.20
2009,05,27,02,07,7.20
2009,05,27,02,08,7.10
2009,05,27,02,09,7.10
2009,05,27,02,10,7.10
2009,05,27,02,11,7.10
2009,05,27,02,12,7.10
2009,05,27,02,13,7.10
2009,05,27,02,14,7.10
2009,05,27,02,15,7.10
2009,05,27,02,16,7.10
2009,05,27,02,17,7.10
2009,05,27,02,18,7.10
2009,05,27,02,19,7.10
2009,05,27,02,20,7.10
2009,05,27,02,21,7.10
2009,05,27,02,22,7.10
2009,05,27,02,23,7.10
2009,05,27,02,24,7.10
2009,05,27,02,25,7.10
2009,05,27,02,26,7.20
2009,05,27,02,27,7.20
2009,05,27,02,28,7.20
2009,05,27,02,29,7.20
2009,05,27,02,30,7.20
2009,05,27,02,31,7.20
2009,05,27,02,32,7.20
2009,05,27,02,33,7.20
2009,05,27,02,34,7.20
2009,05,27,02,35,7.20
2009,05,27,02,36,7.30
2009,05,27,02,37,7.20
2009,05,27,02,38,7.20
2009,05,27,02,39,7.20
2009,05,27,02,40,7.20
2009,05,27,02,41,7.10
2009,05,27,02,42,7.10
2009,05,27,02,43,7.00
2009,05,27,02,44,7.00
2009,05,27,02,45,6.90
2009,05,27,02,46,6.80
2009,05,27,02,47,6.80
2009,05,27,02,48,6.80
2009,05,27,02,49,6.70
2009,05,27,02,50,6.70
2009,05,27,02,51,6.70
2009,05,27,02,52,6.60
2009,05,27,02,53,6.60
2009,05,27,02,54,6.60
2009,05,27,02,55,6.60
2009,05,27,02,56,6.40
2009,05,27,02,57,6.40
2009,05,27,02,58,6.40
2009,05,27,02,59,6.40
2009,05,27,03,00,6.40
2009,05,27,03,01,6.30
2009,05,27,03,02,6.30
2009,05,27,03,03,6.30
2009,05,27,03,04,6.20
2009,05,27,03,05,6.20
2009,05,27,03,06,6.20
2009,05,27,03,07,6.10
2009,05,27,03,08,6.00
2009,05,27,03,09,6.00
2009,05,27,03,10,5.90
2009,05,27,03,11,5.80
2009,05,27,03,12,5.80
2009,05,27,03,13,5.70
2009,05,27,03,14,5.70
2009,05,27,03,15,5.70
2009,05,27,03,16,5.60
2009,05,27,03,17,5.60
2009,05,27,03,18,5.60
2009,05,27,03,19,5.60
2009,05,27,03,20,5.60
2009,05,27,03,21,5.50
2009,05,27,03,22,5.50
2009,05,27,03,23,5.50
2009,05,27,03,24,5.50
2009,05,27,03,25,5.40
2009,05,27,03,26,5.40
2009,05,27,03,27,5.40
2009,05,27,03,28,5.40
2009,05,27,03,29,5.30
2009,05,27,03,30,5.30
2009,05,27,03,31,5.30
2009,05,27,03,32,5.30
2009,05,27,03,33,5.30
2009,05,27,03,34,5.30
2009,05,27,03,35,5.30
2009,05,27,03,36,5.30
2009,05,27,03,37,5.30
2009,05,27,03,38,5.30
2009,05,27,03,39,5.30
2009,05,27,03,40,5.30
2009,05,27,03,41,5.30
2009,05,27,03,42,5.30
2009,05,27,03,43,5.30
2009,05,27,03,44,5.30
2009,05,27,03,45,5.30
2009,05,27,03,46,5.30
2009,05,27,03,47,5.30
2009,05,27,03,48,5.30
2009,05,27,03,49,5.30
2009,05,27,03,50,5.30
2009,05,27,03,51,5.30
2009,05,27,03,52,5.30
2009,05,27,03,53,5.30
2009,05,27,03,54,5.20
2009,05,27,03,55,5.20
2009,05,27,03,56,5.20
2009,05,27,03,57,5.20
2009,05,27,03,58,5.20
2009,05,27,03,59,5.20
2009,05,27,04,00,5.20
2009,05,27,04,01,5.20
2009,05,27,04,02,5.20
2009,05,27,04,03,5.10
2009,05,27,04,04,5.10
2009,05,27,04,05,5.10
2009,05,27,04,06,5.10
2009,05,27,04,07,5.10
2009,05,27,04,08,5.10
2009,05,27,04,09,5.10
2009,05,27,04,10,5.10
2009,05,27,04,11,4.90
2009,05,27,04,12,4.90
2009,05,27,04,13,4.90
2009,05,27,04,14,4.90
2009,05,27,04,15,4.90
2009,05,27,04,16,4.90
2009,05,27,04,17,4.90
2009,05,27,04,18,4.90
2009,05,27,04,19,4.90
2009,05,27,04,20,4.90
2009,05,27,04,21,4.90
2009,05,27,04,22,4.90
2009,05,27,04,23,4.90
2009,05,27,04,24,4.90
2009,05,27,04,25,4.90
2009,05,27,04,26,4.90
2009,05,27,04,27,4.90
2009,05,27,04,28,4.90
2009,05,27,04,29,4.90
2009,05,27,04,30,4.80
2009,05,27,04,31,4.80
2009,05,27,04,32,4.80
2009,05,27,04,33,4.80
2009,05,27,04,34,4.70
2009,05,27,04,35,4.70
2009,05,27,04,36,4.70
2009,05,27,04,37,4.70
2009,05,27,04,38,4.60
2009,05,27,04,39,4.60
2009,05,27,04,40,4.60
2009,05,27,04,41,4.60
2009,05,27,04,42,4.60
2009,05,27,04,43,4.60
2009,05,27,04,44,4.60
2009,05,27,04,45,4.60
2009,05,27,04,46,4.60
2009,05,27,04,47,4.60
2009,05,27,04,48,4.60
2009,05,27,04,49,4.60
2009,05,27,04,50,4.50
2009,05,27,04,51,4.50
2009,05,27,04,52,4.50
2009,05,27,04,53,4.40
2009,05,27,04,54,4.40
2009,05,27,04,55,4.40
2009,05,27,04,56,4.30
2009,05,27,04,57,4.30
2009,05,27,04,58,4.30
2009,05,27,04,59,4.30
2009,05,27,05,00,4.30
2009,05,27,05,01,4.20
2009,05,27,05,02,4.20
2009,05,27,05,03,4.20
2009,05,27,05,04,4.20
2009,05,27,05,05,4.20
2009,05,27,05,06,4.20
2009,05,27,05,07,4.20
2009,05,27,05,08,4.20
2009,05,27,05,09,4.20
2009,05,27,05,10,4.20
2009,05,27,05,11,4.20
2009,05,27,05,12,4.20
2009,05,27,05,13,4.20
2009,05,27,05,14,4.20
2009,05,27,05,15,4.10
2009,05,27,05,16,4.10
2009,05,27,05,17,4.10
2009,05,27,05,18,4.10
2009,05,27,05,19,4.10
2009,05,27,05,20,4.10
2009,05,27,05,21,4.10
2009,05,27,05,22,4.10
2009,05,27,05,23,4.00
2009,05,27,05,24,4.00
2009,05,27,05,25,4.00
2009,05,27,05,26,4.00
2009,05,27,05,27,4.00
2009,05,27,05,28,3.90
2009,05,27,05,29,3.90
2009,05,27,05,30,3.90
2009,05,27,05,31,3.90
2009,05,27,05,32,3.90
2009,05,27,05,33,3.80
2009,05,27,05,34,3.80
2009,05,27,05,35,3.80
2009,05,27,05,36,3.80
2009,05,27,05,37,3.80
2009,05,27,05,38,3.80
2009,05,27,05,39,3.80
2009,05,27,05,40,3.80
2009,05,27,05,41,3.90
2009,05,27,05,42,3.90
2009,05,27,05,43,3.90
2009,05,27,05,44,4.00
2009,05,27,05,45,4.00
2009,05,27,05,46,4.00
2009,05,27,05,47,3.90
2009,05,27,05,48,3.90
2009,05,27,05,49,3.90
2009,05,27,05,50,3.90
2009,05,27,05,51,3.90
2009,05,27,05,52,3.90
2009,05,27,05,53,3.90
2009,05,27,05,54,3.90
2009,05,27,05,55,3.90
2009,05,27,05,56,3.90
2009,05,27,05,57,3.90
2009,05,27,05,58,3.90
2009,05,27,05,59,3.90
2009,05,27,06,00,3.90
2009,05,27,06,01,3.90
2009,05,27,06,02,3.90
2009,05,27,06,03,3.90
2009,05,27,06,04,4.00
2009,05,27,06,05,4.00
2009,05,27,06,06,4.00
2009,05,27,06,07,4.00
2009,05,27,06,08,4.10
2009,05,27,06,09,4.10
2009,05,27,06,10,4.10
2009,05,27,06,11,4.10
2009,05,27,06,12,4.20
2009,05,27,06,13,4.20
2009,05,27,06,14,4.20
2009,05,27,06,15,4.20
2009,05,27,06,16,4.20
2009,05,27,06,17,4.20
2009,05,27,06,18,4.20
2009,05,27,06,19,4.30
2009,05,27,06,20,4.30
2009,05,27,06,21,4.40
2009,05,27,06,22,4.40
2009,05,27,06,23,4.40
2009,05,27,06,24,4.40
2009,05,27,06,25,4.50
2009,05,27,06,26,4.50
2009,05,27,06,27,4.50
2009,05,27,06,28,4.50
2009,05,27,06,29,4.60
2009,05,27,06,30,4.60
2009,05,27,06,31,4.60
2009,05,27,06,32,4.70
2009,05,27,06,33,4.70
2009,05,27,06,34,4.80
2009,05,27,06,35,4.80
2009,05,27,06,36,4.90
2009,05,27,06,37,4.90
2009,05,27,06,38,4.90
2009,05,27,06,39,5.00
2009,05,27,06,40,5.10
2009,05,27,06,41,5.10
2009,05,27,06,42,5.10
2009,05,27,06,43,5.20
2009,05,27,06,44,5.30
2009,05,27,06,45,5.30
2009,05,27,06,46,5.40
2009,05,27,06,47,5.50
2009,05,27,06,48,5.60
2009,05,27,06,49,5.70
2009,05,27,06,50,5.70
2009,05,27,06,51,5.80
2009,05,27,06,52,5.90
2009,05,27,06,53,6.00
2009,05,27,06,54,6.10
2009,05,27,06,55,6.20
2009,05,27,06,56,6.20
2009,05,27,06,57,6.30
2009,05,27,06,58,6.40
2009,05,27,06,59,6.40
2009,05,27,07,00,6.60
2009,05,27,07,01,6.70
2009,05,27,07,02,6.80
2009,05,27,07,03,6.80
2009,05,27,07,04,7.00
2009,05,27,07,05,7.10
2009,05,27,07,06,7.20
2009,05,27,07,07,7.40
2009,05,27,07,08,7.50
2009,05,27,07,09,7.60
2009,05,27,07,10,7.80
2009,05,27,07,11,7.80
2009,05,27,07,12,7.90
2009,05,27,07,13,8.00
2009,05,27,07,14,8.00
2009,05,27,07,15,8.10
2009,05,27,07,16,8.20
2009,05,27,07,17,8.20
2009,05,27,07,18,8.30
2009,05,27,07,19,8.40
2009,05,27,07,20,8.50
2009,05,27,07,21,8.50
2009,05,27,07,22,8.60
2009,05,27,07,23,8.70
2009,05,27,07,24,8.70
2009,05,27,07,25,8.70
2009,05,27,07,26,8.70
2009,05,27,07,27,8.70
2009,05,27,07,28,8.70
2009,05,27,07,29,8.70
2009,05,27,07,30,8.70
2009,05,27,07,31,8.70
2009,05,27,07,32,8.80
2009,05,27,07,33,8.80
2009,05,27,07,34,8.90
2009,05,27,07,35,9.00
2009,05,27,07,36,9.10
2009,05,27,07,37,9.10
2009,05,27,07,38,9.20
2009,05,27,07,39,9.20
2009,05,27,07,40,9.30
2009,05,27,07,41,9.40
2009,05,27,07,42,9.40
2009,05,27,07,43,9.50
2009,05,27,07,44,9.60
2009,05,27,07,45,9.70
2009,05,27,07,46,9.70
2009,05,27,07,47,9.80
2009,05,27,07,48,9.80
2009,05,27,07,49,9.90
2009,05,27,07,50,9.90
2009,05,27,07,51,9.90
2009,05,27,07,52,9.90
2009,05,27,07,53,10.00
2009,05,27,07,54,10.10
2009,05,27,07,55,10.20
2009,05,27,07,56,10.20
2009,05,27,07,57,10.30
2009,05,27,07,58,10.40
2009,05,27,07,59,10.40
2009,05,27,08,00,10.50
2009,05,27,08,01,10.60
2009,05,27,08,02,10.60
2009,05,27,08,03,10.70
2009,05,27,08,04,10.70
2009,05,27,08,05,10.80
2009,05,27,08,06,10.80
2009,05,27,08,07,10.80
2009,05,27,08,08,10.90
2009,05,27,08,09,11.00
2009,05,27,08,10,11.10
2009,05,27,08,11,11.20
2009,05,27,08,12,11.30
2009,05,27,08,13,11.40
2009,05,27,08,14,11.40
2009,05,27,08,15,11.40
2009,05,27,08,16,11.50
2009,05,27,08,17,11.60
2009,05,27,08,18,11.60
2009,05,27,08,19,11.60
2009,05,27,08,20,11.60
2009,05,27,08,21,11.60
2009,05,27,08,22,11.60
2009,05,27,08,23,11.70
2009,05,27,08,24,11.80
2009,05,27,08,25,11.80
2009,05,27,08,26,11.80
2009,05,27,08,27,11.90
2009,05,27,08,28,11.90
2009,05,27,08,29,11.90
2009,05,27,08,30,12.00
2009,05,27,08,31,12.00
2009,05,27,08,32,12.00
2009,05,27,08,33,12.00
2009,05,27,08,34,12.10
2009,05,27,08,35,12.10
2009,05,27,08,36,12.20
2009,05,27,08,37,12.20
2009,05,27,08,38,12.30
2009,05,27,08,39,12.20
2009,05,27,08,40,12.20
2009,05,27,08,41,12.10
2009,05,27,08,42,12.10
2009,05,27,08,43,12.10
2009,05,27,08,44,12.20
2009,05,27,08,45,12.30
2009,05,27,08,46,12.30
2009,05,27,08,47,12.30
2009,05,27,08,48,12.50
2009,05,27,08,49,12.50
2009,05,27,08,50,12.60
2009,05,27,08,51,12.50
2009,05,27,08,52,12.50
2009,05,27,08,53,12.50
2009,05,27,08,54,12.40
2009,05,27,08,55,12.40
2009,05,27,08,56,12.30
2009,05,27,08,57,12.30
2009,05,27,08,58,12.30
2009,05,27,08,59,12.40
2009,05,27,09,00,12.40
2009,05,27,09,01,12.40
2009,05,27,09,02,12.40
2009,05,27,09,03,12.40
2009,05,27,09,04,12.30
2009,05,27,09,05,12.30
2009,05,27,09,06,12.30
2009,05,27,09,07,12.30
2009,05,27,09,08,12.30
2009,05,27,09,09,12.30
2009,05,27,09,10,12.30
2009,05,27,09,11,12.30
2009,05,27,09,12,12.40
2009,05,27,09,13,12.50
2009,05,27,09,14,12.60
2009,05,27,09,15,12.70
2009,05,27,09,16,12.90
2009,05,27,09,17,13.00
2009,05,27,09,18,13.20
2009,05,27,09,19,13.30
2009,05,27,09,20,13.40
2009,05,27,09,21,13.50
2009,05,27,09,22,13.60
2009,05,27,09,23,13.70
2009,05,27,09,24,13.80
2009,05,27,09,25,13.90
2009,05,27,09,26,14.00
2009,05,27,09,27,14.10
2009,05,27,09,28,14.10
2009,05,27,09,29,14.10
2009,05,27,09,30,14.00
2009,05,27,09,31,14.00
2009,05,27,09,32,13.90
2009,05,27,09,33,13.90
2009,05,27,09,34,13.90
2009,05,27,09,35,13.90
2009,05,27,09,36,13.90
2009,05,27,09,37,13.80
2009,05,27,09,38,13.70
2009,05,27,09,39,13.80
2009,05,27,09,40,13.80
2009,05,27,09,41,13.80
2009,05,27,09,42,13.80
2009,05,27,09,43,13.90
2009,05,27,09,44,13.90
2009,05,27,09,45,14.10
2009,05,27,09,46,14.20
2009,05,27,09,47,14.40
2009,05,27,09,48,14.60
2009,05,27,09,49,14.60
2009,05,27,09,50,14.50
2009,05,27,09,51,14.50
2009,05,27,09,52,14.50
2009,05,27,09,53,14.60
2009,05,27,09,54,14.50
2009,05,27,09,55,14.40
2009,05,27,09,56,14.40
2009,05,27,09,57,14.30
2009,05,27,09,58,14.20
2009,05,27,09,59,14.10
2009,05,27,10,00,14.10
2009,05,27,10,01,14.10
2009,05,27,10,02,14.10
2009,05,27,10,03,14.20
2009,05,27,10,04,14.30
2009,05,27,10,05,14.40
2009,05,27,10,06,14.40
2009,05,27,10,07,14.50
2009,05,27,10,08,14.60
2009,05,27,10,09,14.60
2009,05,27,10,10,14.70
2009,05,27,10,11,14.80
2009,05,27,10,12,14.70
2009,05,27,10,13,14.70
2009,05,27,10,14,14.70
2009,05,27,10,15,14.70
2009,05,27,10,16,14.80
2009,05,27,10,17,14.80
2009,05,27,10,18,14.60
2009,05,27,10,19,14.60
2009,05,27,10,20,14.40
2009,05,27,10,21,14.30
2009,05,27,10,22,14.20
2009,05,27,10,23,14.20
2009,05,27,10,24,14.20
2009,05,27,10,25,14.20
2009,05,27,10,26,14.40
2009,05,27,10,27,14.50
2009,05,27,10,28,14.50
2009,05,27,10,29,14.50
2009,05,27,10,30,14.50
2009,05,27,10,31,14.50
2009,05,27,10,32,14.60
2009,05,27,10,33,14.70
2009,05,27,10,34,14.70
2009,05,27,10,35,14.80
2009,05,27,10,36,14.70
2009,05,27,10,37,14.60
2009,05,27,10,38,14.50
2009,05,27,10,39,14.50
2009,05,27,10,40,14.60
2009,05,27,10,41,14.70
2009,05,27,10,42,14.90
2009,05,27,10,43,15.00
2009,05,27,10,44,15.10
2009,05,27,10,45,15.20
2009,05,27,10,46,15.30
2009,05,27,10,47,15.30
2009,05,27,10,48,15.30
2009,05,27,10,49,15.40
2009,05,27,10,50,15.40
2009,05,27,10,51,15.30
2009,05,27,10,52,15.30
2009,05,27,10,53,15.30
2009,05,27,10,54,15.30
2009,05,27,10,55,15.30
2009,05,27,10,56,15.40
2009,05,27,10,57,15.40
2009,05,27,10,58,15.30
2009,05,27,10,59,15.30
2009,05,27,11,00,15.30
2009,05,27,11,01,15.30
2009,05,27,11,02,15.30
2009,05,27,11,03,15.30
2009,05,27,11,04,15.40
2009,05,27,11,05,15.50
2009,05,27,11,06,15.50
2009,05,27,11,07,15.50
2009,05,27,11,08,15.30
2009,05,27,11,09,15.30
2009,05,27,11,10,15.30
2009,05,27,11,11,15.30
2009,05,27,11,12,15.30
2009,05,27,11,13,15.40
2009,05,27,11,14,15.60
2009,05,27,11,15,15.50
2009,05,27,11,16,15.40
2009,05,27,11,17,15.20
2009,05,27,11,18,15.10
2009,05,27,11,19,14.80
2009,05,27,11,20,14.70
2009,05,27,11,21,14.50
2009,05,27,11,22,14.20
2009,05,27,11,23,14.20
2009,05,27,11,24,14.10
2009,05,27,11,25,14.20
2009,05,27,11,26,14.20
2009,05,27,11,27,14.40
2009,05,27,11,28,14.60
2009,05,27,11,29,14.70
2009,05,27,11,30,14.80
2009,05,27,11,31,14.80
2009,05,27,11,32,14.70
2009,05,27,11,33,14.40
2009,05,27,11,34,14.20
2009,05,27,11,35,14.00
2009,05,27,11,36,14.00
2009,05,27,11,37,14.00
2009,05,27,11,38,13.90
2009,05,27,11,39,14.00
2009,05,27,11,40,13.90
2009,05,27,11,41,13.90
2009,05,27,11,42,13.90
2009,05,27,11,43,13.90
2009,05,27,11,44,13.90
2009,05,27,11,45,14.00
2009,05,27,11,46,14.00
2009,05,27,11,47,14.10
2009,05,27,11,48,14.20
2009,05,27,11,49,14.30
2009,05,27,11,50,14.10
2009,05,27,11,51,14.00
2009,05,27,11,52,13.90
2009,05,27,11,53,14.00
2009,05,27,11,54,13.90
2009,05,27,11,55,14.00
2009,05,27,11,56,14.10
2009,05,27,11,57,14.30
2009,05,27,11,58,14.40
2009,05,27,11,59,14.40
2009,05,27,12,00,14.40
2009,05,27,12,01,14.40
2009,05,27,12,02,14.30
2009,05,27,12,03,14.50
2009,05,27,12,04,14.50
2009,05,27,12,05,14.60
2009,05,27,12,06,14.60
2009,05,27,12,07,14.80
2009,05,27,12,08,14.80
2009,05,27,12,09,14.60
2009,05,27,12,10,14.60
2009,05,27,12,11,14.50
2009,05,27,12,12,14.50
2009,05,27,12,13,14.30
2009,05,27,12,14,14.30
2009,05,27,12,15,14.40
2009,05,27,12,16,14.40
2009,05,27,12,17,14.40
2009,05,27,12,18,14.40
2009,05,27,12,19,14.30
2009,05,27,12,20,14.20
2009,05,27,12,21,14.20
2009,05,27,12,22,14.40
2009,05,27,12,23,14.50
2009,05,27,12,24,14.70
2009,05,27,12,25,14.60
2009,05,27,12,26,14.50
2009,05,27,12,27,14.40
2009,05,27,12,28,14.40
2009,05,27,12,29,14.40
2009,05,27,12,30,14.40
2009,05,27,12,31,14.50
2009,05,27,12,32,14.50
2009,05,27,12,33,14.50
2009,05,27,12,34,14.50
2009,05,27,12,35,14.50
2009,05,27,12,36,14.50
2009,05,27,12,37,14.60
2009,05,27,12,38,14.40
2009,05,27,12,39,14.20
2009,05,27,12,40,14.10
2009,05,27,12,41,14.00
2009,05,27,12,42,14.10
2009,05,27,12,43,14.10
2009,05,27,12,44,14.20
2009,05,27,12,45,14.30
2009,05,27,12,46,14.50
2009,05,27,12,47,14.80
2009,05,27,12,48,14.90
2009,05,27,12,49,15.00
2009,05,27,12,50,15.10
2009,05,27,12,51,15.20
2009,05,27,12,52,15.20
2009,05,27,12,53,15.10
2009,05,27,12,54,15.10
2009,05,27,12,55,14.90
2009,05,27,12,56,14.80
2009,05,27,12,57,14.70
2009,05,27,12,58,14.70
2009,05,27,12,59,14.70
2009,05,27,13,00,14.80
2009,05,27,13,01,14.90
2009,05,27,13,02,14.90
2009,05,27,13,03,14.80
2009,05,27,13,04,14.70
2009,05,27,13,05,14.80
2009,05,27,13,06,14.90
2009,05,27,13,07,15.00
2009,05,27,13,08,15.10
2009,05,27,13,09,15.20
2009,05,27,13,10,15.30
2009,05,27,13,11,15.30
2009,05,27,13,12,15.20
2009,05,27,13,13,15.20
2009,05,27,13,14,15.20
2009,05,27,13,15,15.30
2009,05,27,13,16,15.50
2009,05,27,13,17,15.50
2009,05,27,13,18,15.30
2009,05,27,13,19,15.20
2009,05,27,13,20,14.90
2009,05,27,13,21,14.80
2009,05,27,13,22,14.70
2009,05,27,13,23,14.70
2009,05,27,13,24,14.60
2009,05,27,13,25,14.50
2009,05,27,13,26,14.50
2009,05,27,13,27,14.60
2009,05,27,13,28,14.50
2009,05,27,13,29,14.40
2009,05,27,13,30,14.50
2009,05,27,13,31,14.60
2009,05,27,13,32,14.80
2009,05,27,13,33,15.10
2009,05,27,13,34,15.30
2009,05,27,13,35,15.20
2009,05,27,13,36,15.10
2009,05,27,13,37,14.90
2009,05,27,13,38,14.60
2009,05,27,13,39,14.50
2009,05,27,13,40,14.40
2009,05,27,13,41,14.40
2009,05,27,13,42,14.30
2009,05,27,13,43,14.30
2009,05,27,13,44,14.20
2009,05,27,13,45,14.10
2009,05,27,13,46,14.00
2009,05,27,13,47,14.00
2009,05,27,13,48,14.10
2009,05,27,13,49,14.20
2009,05,27,13,50,14.20
2009,05,27,13,51,14.50
2009,05,27,13,52,14.60
2009,05,27,13,53,14.80
2009,05,27,13,54,14.70
2009,05,27,13,55,14.60
2009,05,27,13,56,14.60
2009,05,27,13,57,14.60
2009,05,27,13,58,14.70
2009,05,27,13,59,14.80
2009,05,27,14,00,14.70
2009,05,27,14,01,14.80
2009,05,27,14,02,14.80
2009,05,27,14,03,14.70
2009,05,27,14,04,14.60
2009,05,27,14,05,14.40
2009,05,27,14,06,14.40
2009,05,27,14,07,14.60
2009,05,27,14,08,14.70
2009,05,27,14,09,14.80
2009,05,27,14,10,14.90
2009,05,27,14,11,15.10
2009,05,27,14,12,15.30
2009,05,27,14,13,15.40
2009,05,27,14,14,15.50
2009,05,27,14,15,15.70
2009,05,27,14,16,15.80
2009,05,27,14,17,15.90
2009,05,27,14,18,15.80
2009,05,27,14,19,15.80
2009,05,27,14,20,15.60
2009,05,27,14,21,15.40
2009,05,27,14,22,15.20
2009,05,27,14,23,15.00
2009,05,27,14,24,14.90
2009,05,27,14,25,14.80
2009,05,27,14,26,14.80
2009,05,27,14,27,14.70
2009,05,27,14,28,14.70
2009,05,27,14,29,14.70
2009,05,27,14,30,14.70
2009,05,27,14,31,14.60
2009,05,27,14,32,14.60
2009,05,27,14,33,14.70
2009,05,27,14,34,14.80
2009,05,27,14,35,14.70
2009,05,27,14,36,14.50
2009,05,27,14,37,14.80
2009,05,27,14,38,15.10
2009,05,27,14,39,15.30
2009,05,27,14,40,15.30
2009,05,27,14,41,15.30
2009,05,27,14,42,15.40
2009,05,27,14,43,15.40
2009,05,27,14,44,15.30
2009,05,27,14,45,15.20
2009,05,27,14,46,15.10
2009,05,27,14,47,15.00
2009,05,27,14,48,15.00
2009,05,27,14,49,14.90
2009,05,27,14,50,15.10
2009,05,27,14,51,15.10
2009,05,27,14,52,15.20
2009,05,27,14,53,15.30
2009,05,27,14,54,15.30
2009,05,27,14,55,15.20
2009,05,27,14,56,15.10
2009,05,27,14,57,15.10
2009,05,27,14,58,15.00
2009,05,27,14,59,15.10
2009,05,27,15,00,15.30
2009,05,27,15,01,15.40
2009,05,27,15,02,15.30
2009,05,27,15,03,15.50
2009,05,27,15,04,15.60
2009,05,27,15,05,15.80
2009,05,27,15,06,15.90
2009,05,27,15,07,15.90
2009,05,27,15,08,15.90
2009,05,27,15,09,15.70
2009,05,27,15,10,15.40
2009,05,27,15,11,15.20
2009,05,27,15,12,15.40
2009,05,27,15,13,15.50
2009,05,27,15,14,15.70
2009,05,27,15,15,15.80
2009,05,27,15,16,15.90
2009,05,27,15,17,15.90
2009,05,27,15,18,15.90
2009,05,27,15,19,15.90
2009,05,27,15,20,15.90
2009,05,27,15,21,15.80
2009,05,27,15,22,15.70
2009,05,27,15,23,15.60
2009,05,27,15,24,15.50
2009,05,27,15,25,15.30
2009,05,27,15,26,15.30
2009,05,27,15,27,15.30
2009,05,27,15,28,15.30
2009,05,27,15,29,15.30
2009,05,27,15,30,15.50
2009,05,27,15,31,15.60
2009,05,27,15,32,15.50
2009,05,27,15,33,15.50
2009,05,27,15,34,15.70
2009,05,27,15,35,15.60
2009,05,27,15,36,15.50
2009,05,27,15,37,15.30
2009,05,27,15,38,15.30
2009,05,27,15,39,15.30
2009,05,27,15,40,15.20
2009,05,27,15,41,15.10
2009,05,27,15,42,15.10
2009,05,27,15,43,15.00
2009,05,27,15,44,15.00
2009,05,27,15,45,15.10
2009,05,27,15,46,15.10
2009,05,27,15,47,15.20
2009,05,27,15,48,15.30
2009,05,27,15,49,15.30
2009,05,27,15,50,15.30
2009,05,27,15,51,15.50
2009,05,27,15,52,15.50
2009,05,27,15,53,15.50
2009,05,27,15,54,15.60
2009,05,27,15,55,15.80
2009,05,27,15,56,15.80
2009,05,27,15,57,15.60
2009,05,27,15,58,15.60
2009,05,27,15,59,15.50
2009,05,27,16,00,15.40
2009,05,27,16,01,15.40
2009,05,27,16,02,15.30
2009,05,27,16,03,15.30
2009,05,27,16,04,15.30
2009,05,27,16,05,15.40
2009,05,27,16,06,15.50
2009,05,27,16,07,15.60
2009,05,27,16,08,15.60
2009,05,27,16,09,15.50
2009,05,27,16,10,15.50
2009,05,27,16,11,15.50
2009,05,27,16,12,15.50
2009,05,27,16,13,15.40
2009,05,27,16,14,15.30
2009,05,27,16,15,15.30
2009,05,27,16,16,15.30
2009,05,27,16,17,15.50
2009,05,27,16,18,15.60
2009,05,27,16,19,15.70
2009,05,27,16,20,15.80
2009,05,27,16,21,15.70
2009,05,27,16,22,15.80
2009,05,27,16,23,15.90
2009,05,27,16,24,15.90
2009,05,27,16,25,15.80
2009,05,27,16,26,15.70
2009,05,27,16,27,15.60
2009,05,27,16,28,15.60
2009,05,27,16,29,15.60
2009,05,27,16,30,15.50
2009,05,27,16,31,15.50
2009,05,27,16,32,15.50
2009,05,27,16,33,15.50
2009,05,27,16,34,15.50
2009,05,27,16,35,15.50
2009,05,27,16,36,15.60
2009,05,27,16,37,15.60
2009,05,27,16,38,15.60
2009,05,27,16,39,15.60
2009,05,27,16,40,15.60
2009,05,27,16,41,15.60
2009,05,27,16,42,15.60
2009,05,27,16,43,15.70
2009,05,27,16,44,15.80
2009,05,27,16,45,15.70
2009,05,27,16,46,15.70
2009,05,27,16,47,15.80
2009,05,27,16,48,15.80
2009,05,27,16,49,15.80
2009,05,27,16,50,15.90
2009,05,27,16,51,16.00
2009,05,27,16,52,16.10
2009,05,27,16,53,15.90
2009,05,27,16,54,15.80
2009,05,27,16,55,15.80
2009,05,27,16,56,16.00
2009,05,27,16,57,16.10
2009,05,27,16,58,16.00
2009,05,27,16,59,16.10
2009,05,27,17,00,16.10
2009,05,27,17,01,16.10
2009,05,27,17,02,16.10
2009,05,27,17,03,16.10
2009,05,27,17,04,16.20
2009,05,27,17,05,16.30
2009,05,27,17,06,16.30
2009,05,27,17,07,16.30
2009,05,27,17,08,16.30
2009,05,27,17,09,16.30
2009,05,27,17,10,16.20
2009,05,27,17,11,16.30
2009,05,27,17,12,16.40
2009,05,27,17,13,16.40
2009,05,27,17,14,16.50
2009,05,27,17,15,16.60
2009,05,27,17,16,16.70
2009,05,27,17,17,16.80
2009,05,27,17,18,16.80
2009,05,27,17,19,16.90
2009,05,27,17,20,16.80
2009,05,27,17,21,16.70
2009,05,27,17,22,16.70
2009,05,27,17,23,16.80
2009,05,27,17,24,16.90
2009,05,27,17,25,16.90
2009,05,27,17,26,16.80
2009,05,27,17,27,16.70
2009,05,27,17,28,16.70
2009,05,27,17,29,16.70
2009,05,27,17,30,16.80
2009,05,27,17,31,16.80
2009,05,27,17,32,16.80
2009,05,27,17,33,16.80
2009,05,27,17,34,16.70
2009,05,27,17,35,16.70
2009,05,27,17,36,16.80
2009,05,27,17,37,16.90
2009,05,27,17,38,16.90
2009,05,27,17,39,16.80